[[{"header":{"parameterUnit":"m.s-1","parameterCategory":1,"la1":30.2991,"la2":30.254,"lo1":-89.0895,"lo2":-89.0444,"dy":0.0017,"dx":0.0017,"nx":28,"ny":28,"refTime":"2024-02-24T09:00:00:Z","depth":0,"parameterNumber":2,"parameterNumberName":"U-component_of_WINDS"},"data":[0,0,0,0,0,0,0,0,0,0,0,0,0,0,0,0,0,0,0,0,0,0,0,0,0,0,0,0,0,0,0,0,0,0,0,0,0,0,0,0,0,0,0,0,0,0,0,0,0,0,0,0,0,0,0,0,0,0,-1.1838,-1.1838,0,-1.1793,-1.1792,-1.1792,-1.1752,-1.1751,-1.1751,-1.1751,-1.1704,-1.1703,-1.1703,0,0,0,0,0,0,0,0,0,0,0,0,0,-1.1891,-1.189,-1.1838,-1.1838,-1.1837,-1.1793,-1.1792,-1.1792,-1.1752,-1.1751,-1.1751,-1.175,-1.1704,-1.1703,-1.1703,0,0,0,0,0,0,0,0,0,0,0,0,0,-1.1859,-1.189,-1.1838,-1.1812,-1.1809,-1.1793,-1.1792,-1.1791,-1.1752,-1.1751,-1.1751,-1.175,-1.1705,-1.1704,-1.1702,-1.1709,0,0,-1.1699,-1.1698,0,0,0,0,0,0,0,0,-1.1861,-1.1857,-1.1816,-1.1814,-1.1811,-1.1777,-1.1794,-1.1764,-1.1752,-1.1774,-1.1751,-1.175,-1.1729,-1.1726,-1.1719,-1.1707,-1.1705,-1.1699,-1.1698,-1.1697,-1.1697,0,0,0,0,0,0,0,-1.1863,-1.1859,-1.182,-1.1816,-1.1812,-1.1803,-1.1797,-1.1788,-1.1756,-1.1772,-1.1769,-1.1764,-1.1727,-1.172,-1.1717,-1.1704,-1.1699,-1.1698,-1.1697,-1.1696,-1.1695,-1.1695,0,0,0,0,0,0,-1.1869,-1.1861,-1.1822,-1.1819,-1.1835,-1.1802,-1.1796,-1.1789,-1.1756,-1.175,-1.1765,-1.1762,-1.1722,-1.1719,-1.1716,-1.1721,-1.1697,-1.1696,-1.1696,-1.1694,-1.1695,-1.1695,0,0,0,0,0,0,-1.1871,-1.1866,-1.1823,-1.1839,-1.1833,-1.1802,-1.1794,-1.1788,-1.1781,-1.175,-1.1744,-1.1763,-1.1722,-1.1717,-1.1711,-1.1719,-1.1696,-1.1695,-1.1693,-1.1694,-1.1695,-1.1731,0,0,0,0,0,0,-1.1872,-1.1867,-1.1869,-1.1839,-1.1832,-1.1819,-1.1794,-1.1788,-1.1779,-1.1775,-1.1747,-1.1742,-1.1721,-1.1713,-1.171,-1.1716,-1.1694,-1.1692,-1.1694,-1.1695,-1.1729,-1.1733,-1.1737,0,0,0,0,0,-1.1874,-1.1881,-1.1869,-1.1865,-1.1834,-1.182,-1.1816,-1.1791,-1.178,-1.1781,-1.1762,-1.1743,-1.1718,-1.1712,-1.1708,-1.1715,-1.1692,-1.1693,-1.1695,-1.1727,-1.1732,-1.1737,0,0,0,0,0,0,-1.1912,-1.1877,-1.1863,-1.186,-1.1844,-1.1813,-1.1815,-1.1797,-1.1783,-1.1781,-1.1751,-1.1745,-1.1742,-1.1728,-1.1722,-1.172,-1.1702,-1.1703,-1.1729,-1.1733,-1.1737,-1.174,-1.1693,0,0,0,0,0,-1.192,-1.1912,-1.1881,-1.1882,-1.1874,-1.1846,-1.1839,-1.1821,-1.1803,-1.1795,-1.1775,-1.1758,-1.1746,-1.1739,-1.1727,-1.1727,-1.172,-1.173,-1.1734,-1.1737,-1.1738,-1.1737,-1.1741,-1.17,-1.17,-1.17,0,0,-1.1937,-1.1916,-1.1913,-1.1889,-1.1873,-1.1865,-1.184,-1.1832,-1.1826,-1.1794,-1.1786,-1.1771,-1.175,-1.1747,-1.1745,-1.1735,-1.1748,-1.1739,-1.1742,-1.1741,-1.1739,-1.1743,-1.1746,-1.1701,-1.1701,-1.1701,0,0,-1.1962,-1.1946,-1.1945,-1.193,-1.1907,-1.1889,-1.1889,-1.1861,-1.1849,-1.1841,-1.1817,-1.1809,-1.179,-1.1776,-1.1766,-1.1787,-1.1769,-1.1784,-1.1803,-1.1803,-1.1806,-1.1809,-1.1816,-1.1819,-1.1785,-1.1785,-1.1785,0,-1.1986,-1.1972,-1.1946,-1.194,-1.193,-1.1901,-1.1899,-1.1886,-1.1861,-1.1855,-1.1845,-1.182,-1.1803,-1.1796,-1.1802,-1.1795,-1.1793,-1.1786,-1.1808,-1.181,-1.1812,-1.1819,-1.1821,-1.1787,-1.1786,-1.1786,-1.1786,0,-1.2002,-1.1993,-1.1994,-1.197,-1.1961,-1.1957,-1.193,-1.1924,-1.1908,-1.189,-1.1883,-1.1862,-1.1845,-1.1842,-1.1826,-1.1833,-1.1828,-1.1813,-1.1795,-1.1818,-1.1824,-1.1826,-1.1789,-1.1789,-1.1788,-1.1788,0,0,-1.205,-1.2011,-1.2012,-1.2001,-1.1974,-1.1967,-1.1962,-1.1945,-1.194,-1.1923,-1.1918,-1.1903,-1.1889,-1.1878,-1.186,-1.186,-1.1877,-1.1845,-1.1844,-1.1851,-1.1883,-1.1894,-1.1897,-1.1866,-1.1866,-1.1866,-1.1885,0,-1.207,-1.2059,-1.2036,-1.2032,-1.2023,-1.1996,-1.1991,-1.1975,-1.1958,-1.1949,-1.1931,-1.192,-1.1903,-1.1896,-1.1895,-1.1876,-1.1883,-1.1874,-1.186,-1.186,-1.1866,-1.19,-1.1911,-1.193,-1.1887,-1.1887,-1.1888,0,-1.2093,-1.2078,-1.2074,-1.2047,-1.2043,-1.2039,-1.2022,-1.2013,-1.1993,-1.1982,-1.197,-1.195,-1.1943,-1.1927,-1.1918,-1.1912,-1.1905,-1.1895,-1.1895,-1.1892,-1.1875,-1.1898,-1.1936,-1.1938,-1.1891,-1.1891,-1.189,0,-1.2128,-1.2107,-1.2101,-1.2093,-1.2062,-1.206,-1.2047,-1.2026,-1.2018,-1.2003,-1.1997,-1.1982,-1.1973,-1.1962,-1.1939,-1.1929,-1.1931,-1.1913,-1.1921,-1.1922,-1.1922,-1.1922,-1.1959,-1.1919,-1.1919,-1.1919,-1.1919,0,-1.2153,-1.2152,-1.2116,-1.2113,-1.211,-1.2084,-1.2082,-1.2066,-1.2048,-1.2041,-1.2017,-1.2011,-1.1981,-1.1972,-1.1954,-1.1948,-1.1945,-1.1935,-1.193,-1.1937,-1.1938,-1.1931,-1.1929,-1.192,-1.1919,-1.1919,-1.1919,0,-1.2192,-1.2168,-1.216,-1.2131,-1.2124,-1.2123,-1.2099,-1.2095,-1.2077,-1.2069,-1.2065,-1.2038,-1.2026,-1.2002,-1.1983,-1.1971,-1.1969,-1.1961,-1.1976,-1.1972,-1.1981,-1.1981,-1.2014,-1.2017,-1.1976,-1.1977,-1.1977,0,-1.2209,-1.2207,-1.2178,-1.2172,-1.216,-1.215,-1.2141,-1.2115,-1.2106,-1.2084,-1.2082,-1.2068,-1.2055,-1.2037,-1.2016,-1.2001,-1.1992,-1.2005,-1.199,-1.1996,-1.1992,-1.1992,-1.1991,-1.2008,-1.2009,-1.2009,-1.201,0,-1.2243,-1.2231,-1.2219,-1.2203,-1.2193,-1.2179,-1.2164,-1.216,-1.2131,-1.2123,-1.211,-1.21,-1.2081,-1.2067,-1.2049,-1.2036,-1.2018,-1.2015,-1.2015,-1.2022,-1.2031,-1.2026,-1.1984,-1.2014,-1.2013,-1.2013,-1.2013,-1.2013,-1.2271,-1.2268,-1.2247,-1.2234,-1.222,-1.2207,-1.2201,-1.2183,-1.2172,-1.2154,-1.2139,-1.2127,-1.2108,-1.2082,-1.207,-1.2061,-1.2052,-1.2053,-1.2054,-1.2054,-1.2057,-1.2033,-1.2057,-1.2057,-1.2057,-1.2057,-1.2057,0,-1.2303,-1.2288,-1.2277,-1.2256,-1.2247,-1.223,-1.2213,-1.2206,-1.2196,-1.2179,-1.2167,-1.2152,-1.2139,-1.2116,-1.2101,-1.2098,-1.2089,-1.2095,-1.2094,-1.2091,-1.2066,-1.2066,-1.2102,-1.2102,-1.2102,-1.2102,-1.2102,-1.2102,-1.2318,-1.2312,-1.2298,-1.2284,-1.227,-1.2258,-1.2249,-1.2237,-1.2223,-1.2208,-1.2196,-1.2182,-1.2163,-1.2146,-1.2133,-1.2126,-1.2122,-1.213,-1.2121,-1.2097,-1.2093,-1.2089,-1.209,-1.2129,-1.2129,-1.2147,-1.2147,-1.2148]},{"header":{"parameterUnit":"m.s-1","parameterCategory":1,"la1":30.2991,"la2":30.254,"lo1":-89.0895,"lo2":-89.0444,"dy":0.0017,"dx":0.0017,"nx":28,"ny":28,"refTime":"2024-02-24T09:00:00:Z","depth":0,"parameterNumber":3,"parameterNumberName":"V-component_of_WINDS"},"data":[0,0,0,0,0,0,0,0,0,0,0,0,0,0,0,0,0,0,0,0,0,0,0,0,0,0,0,0,0,0,0,0,0,0,0,0,0,0,0,0,0,0,0,0,0,0,0,0,0,0,0,0,0,0,0,0,0,0,3.3908,3.3908,0,3.3892,3.3892,3.3891,3.3847,3.3846,3.3845,3.3844,3.3826,3.3826,3.3827,0,0,0,0,0,0,0,0,0,0,0,0,0,3.3901,3.3901,3.3908,3.3908,3.3908,3.3892,3.3892,3.3891,3.3847,3.3846,3.3845,3.3844,3.3826,3.3826,3.3827,0,0,0,0,0,0,0,0,0,0,0,0,0,3.3896,3.3901,3.3908,3.3884,3.3881,3.3892,3.3892,3.3891,3.3847,3.3846,3.3845,3.3843,3.3826,3.3826,3.3827,3.3859,0,0,3.3829,3.3829,0,0,0,0,0,0,0,0,3.3896,3.3896,3.3888,3.3886,3.3883,3.387,3.3882,3.388,3.3848,3.386,3.3844,3.3842,3.3842,3.3841,3.3841,3.3858,3.3857,3.3829,3.3829,3.3829,3.3829,0,0,0,0,0,0,0,3.3897,3.3897,3.3902,3.3888,3.3885,3.3874,3.3871,3.3882,3.3859,3.3859,3.3856,3.3855,3.384,3.384,3.384,3.3857,3.3829,3.3829,3.383,3.383,3.3902,3.3903,0,0,0,0,0,0,3.3901,3.3897,3.3902,3.3901,3.3886,3.3875,3.3872,3.3876,3.3859,3.3855,3.3856,3.3853,3.384,3.3839,3.3839,3.3877,3.3829,3.383,3.383,3.39,3.3902,3.3904,0,0,0,0,0,0,3.3901,3.3902,3.3903,3.3898,3.3898,3.3877,3.388,3.3876,3.3876,3.3856,3.3852,3.386,3.3839,3.3838,3.3855,3.3876,3.383,3.3831,3.3898,3.3901,3.3903,3.3952,0,0,0,0,0,0,3.3901,3.3902,3.3914,3.3899,3.3898,3.3919,3.3882,3.3877,3.3878,3.3873,3.386,3.3856,3.3838,3.3854,3.3856,3.3876,3.3831,3.3896,3.39,3.3902,3.3949,3.3956,3.3962,0,0,0,0,0,3.3901,3.3928,3.3915,3.3916,3.3913,3.392,3.392,3.3899,3.3879,3.3891,3.3879,3.3856,3.3873,3.3856,3.3857,3.3878,3.3895,3.3899,3.3902,3.3946,3.3955,3.3962,0,0,0,0,0,0,3.3944,3.3925,3.3911,3.3934,3.3929,3.3913,3.3927,3.3909,3.3909,3.3905,3.3878,3.3875,3.3896,3.3888,3.387,3.3909,3.3881,3.3884,3.3913,3.3922,3.3928,3.393,3.3832,0,0,0,0,0,3.3957,3.3965,3.3948,3.397,3.3968,3.3948,3.3951,3.3935,3.3929,3.3927,3.3915,3.391,3.3914,3.3917,3.392,3.3947,3.3944,3.3962,3.3969,3.3975,3.3979,3.3994,3.4002,3.3915,3.3915,3.3915,0,0,3.3983,3.3973,3.3979,3.3978,3.3973,3.3982,3.3947,3.3957,3.3964,3.3928,3.3943,3.3935,3.3927,3.395,3.3959,3.3944,3.4002,3.3979,3.3984,3.3984,3.3998,3.4007,3.4014,3.3918,3.3917,3.3917,0,0,3.4034,3.4027,3.4046,3.4042,3.4034,3.4021,3.4026,3.4013,3.4006,3.4021,3.3995,3.4002,3.401,3.4006,3.4005,3.4057,3.4037,3.4059,3.4094,3.4109,3.4116,3.4122,3.4142,3.4149,3.4062,3.4062,3.4062,0,3.4067,3.4079,3.4057,3.407,3.4071,3.404,3.4059,3.4056,3.4049,3.4051,3.4034,3.4044,3.4037,3.4059,3.4072,3.4071,3.4076,3.406,3.4117,3.4123,3.4128,3.4146,3.4154,3.4065,3.4065,3.4065,3.4064,0,3.412,3.413,3.4146,3.4142,3.4144,3.416,3.414,3.4145,3.413,3.4119,3.4136,3.4126,3.4127,3.4131,3.4115,3.4151,3.4142,3.4122,3.4092,3.4139,3.4156,3.4163,3.4069,3.4068,3.4067,3.4067,0,0,3.4198,3.4183,3.4189,3.4188,3.4178,3.4185,3.42,3.4202,3.4207,3.4204,3.4216,3.4224,3.4206,3.4205,3.4189,3.4202,3.4246,3.4181,3.418,3.4194,3.4286,3.4302,3.431,3.4232,3.4234,3.4235,3.4287,0,3.4247,3.4272,3.4254,3.4282,3.4291,3.4263,3.4276,3.4271,3.4262,3.4268,3.4257,3.4263,3.4238,3.4238,3.425,3.4238,3.4264,3.4234,3.4244,3.4244,3.4247,3.4319,3.4335,3.4385,3.4293,3.4295,3.4295,0,3.4308,3.4309,3.4339,3.4329,3.4332,3.4344,3.4345,3.4351,3.4346,3.4338,3.4339,3.4319,3.4334,3.4305,3.4325,3.4305,3.4307,3.4303,3.4304,3.4304,3.4273,3.4322,3.4401,3.4409,3.4305,3.4304,3.4304,0,3.4363,3.4372,3.4391,3.4391,3.4379,3.4389,3.4385,3.4378,3.4381,3.4382,3.4384,3.4386,3.4387,3.4389,3.4372,3.4352,3.4394,3.4363,3.4388,3.4389,3.4398,3.4398,3.4479,3.4399,3.4399,3.4399,3.4399,0,3.442,3.4439,3.4416,3.4428,3.4449,3.4428,3.4449,3.4442,3.4437,3.4447,3.4422,3.4432,3.4408,3.4416,3.4402,3.4421,3.4421,3.4416,3.4412,3.4418,3.4419,3.442,3.4416,3.4401,3.4401,3.44,3.44,0,3.4485,3.447,3.4489,3.4478,3.4475,3.4492,3.4482,3.4493,3.4482,3.4495,3.4497,3.448,3.4488,3.447,3.4475,3.4466,3.4494,3.4484,3.4496,3.4493,3.4519,3.4517,3.4604,3.4615,3.4528,3.4528,3.4529,0,3.4523,3.4537,3.4528,3.4534,3.4531,3.454,3.4543,3.4523,3.4528,3.4524,3.4536,3.4542,3.4545,3.4559,3.4547,3.4551,3.4542,3.4572,3.4542,3.4549,3.4544,3.4543,3.4545,3.4578,3.458,3.458,3.4581,0,3.4592,3.4584,3.459,3.4594,3.4599,3.4601,3.4601,3.4607,3.4586,3.4592,3.4601,3.4604,3.461,3.4616,3.4618,3.4613,3.4594,3.4591,3.4597,3.4604,3.461,3.4608,3.4513,3.4589,3.4588,3.4587,3.4587,3.4587,3.4645,3.4657,3.4653,3.4661,3.4659,3.4661,3.4671,3.4662,3.4669,3.4673,3.466,3.4672,3.4668,3.4668,3.4666,3.4675,3.4661,3.467,3.4672,3.4675,3.468,3.4609,3.4675,3.4675,3.4674,3.4674,3.4674,0,3.4713,3.471,3.4718,3.4719,3.4726,3.4708,3.4708,3.4715,3.4725,3.4723,3.4728,3.4739,3.4745,3.4735,3.474,3.4749,3.474,3.4751,3.475,3.475,3.4691,3.4686,3.4758,3.4758,3.4758,3.4758,3.4758,3.4758,3.475,3.477,3.4763,3.4782,3.4778,3.479,3.4792,3.4793,3.4792,3.4805,3.4811,3.4804,3.4799,3.4804,3.4809,3.4806,3.4809,3.4823,3.4817,3.4762,3.4754,3.4746,3.4741,3.4824,3.4824,3.4875,3.4876,3.4876]}]]